This demonstration page uses our WeatherBlox Daily Observations layout. Learn more.

Left ArrowRight Arrow

Hourly Observations for May 12, 2020

Temp ( °F °C ) Dew Point ( °F °C ) Humidity (%) Winds ( mph kmh ) Pressure ( in mb ) Visibility ( mi km ) Precip ( " mm )
12:53 am 00:53 Cloudy 44 6.7 38 3.3 79 79 WSW 3 6 30.24 1024 10 16 0.00 0.00
1:53 am 01:53 Cloudy 44 6.7 37 2.8 76 76 WNW 6 9 30.24 1024 10 16 0.00 0.00
2:53 am 02:53 Cloudy 43 6.1 36 2.2 76 76 NW 3 6 30.24 1024 10 16 0.00 0.00
3:53 am 03:53 Cloudy 39 3.9 37 2.8 93 93 Calm 30.24 1024 10 16 0.00 0.00
4:53 am 04:53 Clear 35 1.7 32 0 89 89 Calm 30.24 1024 10 16 0.00 0.00
5:53 am 05:53 Clear 34 1.1 32 0 92 92 Calm 30.26 1025 10 16 0.00 0.00
6:53 am 06:53 Sunny with Mist and Fog 34 1.1 33 0.6 97 97 Calm 30.28 1025 6 10 0.00 0.00
7:53 am 07:53 Sunny 41 5 38 3.3 89 89 Calm 30.30 1026 10 16 0.00 0.00
8:53 am 08:53 Sunny 47 8.3 39 3.9 74 74 Calm 30.31 1026 10 16 0.00 0.00
9:53 am 09:53 Sunny 51 10.6 37 2.8 59 59 undefined N/A 30.31 1026 10 16 0.00 0.00
10:53 am 10:53 Mostly Cloudy 53 11.7 35 1.7 51 51 VRB 3 6 30.30 1026 10 16 0.00 0.00
11:53 am 11:53 Mostly Cloudy 53 11.7 32 0 45 45 Calm 30.29 1026 10 16 0.00 0.00
12:53 pm 12:53 Cloudy 54 12.2 33 0.6 45 45 VRB 5 7 30.28 1025 10 16 0.00 0.00
1:53 pm 13:53 Cloudy 55 12.8 34 1.1 45 45 W 7 11 30.27 1025 10 16 0.00 0.00
2:53 pm 14:53 Mostly Cloudy 56 13.3 33 0.6 42 42 Calm 30.26 1025 10 16 0.00 0.00
3:53 pm 15:53 Mostly Cloudy 58 14.4 34 1.1 41 41 W 8 13 30.24 1024 10 16 0.00 0.00
4:53 pm 16:53 Mostly Cloudy 60 15.6 33 0.6 36 36 VRB 3 6 30.24 1024 10 16 0.00 0.00
5:53 pm 17:53 Mostly Cloudy 60 15.6 34 1.1 38 38 SW 5 7 30.24 1024 10 16 0.00 0.00
6:53 pm 18:53 Partly Cloudy 59 15 33 0.6 38 38 WSW 3 6 30.23 1024 10 16 0.00 0.00
7:53 pm 19:53 Sunny 58 14.4 35 1.7 42 42 WSW 3 6 30.23 1024 10 16 0.00 0.00
8:53 pm 20:53 Clear 48 8.9 39 3.9 71 71 Calm 30.23 1024 10 16 0.00 0.00
9:53 pm 21:53 Clear 44 6.7 38 3.3 79 79 Calm 30.24 1024 10 16 0.00 0.00
10:53 pm 22:53 Clear 42 5.6 37 2.8 82 82 Calm 30.25 1024 10 16 0.00 0.00
11:53 pm 23:53 Clear 40 4.4 37 2.8 89 89 Calm 30.26 1025 10 16 0.00 0.00

Powered by AerisWeather